Regional Weather Roundup
Issued by NWS

Home | Current Version | Previous Version | Graphics & Text | Print | Product List | Glossary On
Versions: 1 2 3 4 5 6 7 8 9 10 11 12 13 14 15 16 17 18 19 20 21 22 23 24 25 26 27 28 29 30 31 32 33 34 35 36 37 38 39 40 41 42 43 44 45 46 47 48 49 50
000
ASUS45 KCYS 181210
RWRWY

WYOMING REGIONAL WEATHER ROUNDUP
NATIONAL WEATHER SERVICE CHEYENNE WY
500 AM MST WED JAN 18 2017

NOTE:  "FAIR" INDICATES FEW OR NO CLOUDS BELOW 12,000 FEET
WITH NO SIGNIFICANT WEATHER AND/OR OBSTRUCTIONS TO VISIBILITY.

WYZ001-181300-
YELLOWSTONE NATIONAL PARK

CITY           SKY/WX    TMP DP  RH WIND       PRES   REMARKS
LK YELLOWSTONE   N/A     -9 -12  87 CALM      30.06F
6HR MIN TEMP:  -9; 6HR MAX TEMP:  -1;

W YELLOWSTONE  NOT AVBL

$$
WYZ002>013-054>058-071-098>099-181300-
NORTHERN WYOMING

CITY           SKY/WX    TMP DP  RH WIND       PRES   REMARKS
JACKSON        FAIR      -8  -9  92 N6        30.13F WCI -21
CODY           FAIR      13   7  77 NE7       29.85F WCI   3
GREYBULL       FAIR      -4  -9  79 CALM      29.91F
6HR MIN TEMP:  -6; 6HR MAX TEMP:   3;

WORLAND        FAIR       6   2  83 SW6       29.89F WCI  -4
6HR MIN TEMP:  -1; 6HR MAX TEMP:   9;

SHERIDAN       FAIR      16  11  80 W7        29.77S WCI   6
6HR MIN TEMP:  12; 6HR MAX TEMP:  27;

BUFFALO        FAIR      27  16  63 CALM      29.79F
6HR MIN TEMP:  21; 6HR MAX TEMP:  39;

GILLETTE       FAIR      33  17  51 NW3       29.81R
6HR MIN TEMP:  33; 6HR MAX TEMP:  36;

HULETT         FAIR      32  19  59 SW12      29.82S WCI  23
NEWCASTLE      FAIR      27  12  54 E6        29.91S WCI  20

$$
WYZ014>020-022>026-101>103-181300-
CENTRAL WYOMING

CITY           SKY/WX    TMP DP  RH WIND       PRES   REMARKS
BIG PINEY      FAIR     -16 -21  78 E6        30.08F WCI -31
6HR MIN TEMP: -16; 6HR MAX TEMP:  -7;

PINEDALE       FAIR     -15 -20  76 CALM      30.08F
DUBOIS         NOT AVBL
LANDER         FAIR       7   4  87 SE3       29.97F
6HR MIN TEMP:   3; 6HR MAX TEMP:  12;

RIVERTON       FAIR       2  -1  88 N3        29.99F
6HR MIN TEMP:  -1; 6HR MAX TEMP:   8;

CASPER         FAIR      31  14  49 SW20G32   29.93F WCI  19
6HR MIN TEMP:  28; 6HR MAX TEMP:  32;

DOUGLAS        FAIR      20  11  68 CALM      29.92S
6HR MIN TEMP:  16; 6HR MAX TEMP:  25;


$$
WYZ021-027>030-104>119-181300-
SOUTHERN WYOMING

CITY           SKY/WX    TMP DP  RH WIND       PRES   REMARKS
EVANSTON       FAIR      15   5  64 S8        30.07F WCI   4
6HR MIN TEMP:  10; 6HR MAX TEMP:  17;

ROCK SPRINGS   FAIR      -2  -8  76 CALM      30.09S
6HR MIN TEMP:  -5; 6HR MAX TEMP:   1;

RAWLINS        FAIR       3  -1  83 W3        30.07F
6HR MIN TEMP:   2; 6HR MAX TEMP:  16;

LARAMIE        FAIR       6   4  91 NE5       30.02S WCI  -3
6HR MIN TEMP:   1; 6HR MAX TEMP:   8;

CHEYENNE       FAIR      29  11  47 W12       29.94S WCI  19
6HR MIN TEMP:  23; 6HR MAX TEMP:  30;

TORRINGTON     FAIR      21  12  68 CALM      29.93F
6HR MIN TEMP:  19; 6HR MAX TEMP:  30;


$$



USA.gov is the U.S. government's official web portal to all federal, state and local government web resources and services.